Tracking 23726 objects as of 22-Sep-2021
HD Live streaming from Space Station
objects crossing your sky now

STARLINK-1607

Track STARLINK-1607 now!
10-day predictions
STARLINK-1607 is classified as:


NORAD ID: 46145
Int'l Code: 2020-057AE
Perigee: 301.5 km
Apogee: 304.3 km
Inclination: 53.1 °
Period: 90.4 minutes
Semi major axis: 6673 km
RCS: Unknown
Launch date: August 18, 2020
Source: United States (US)
Launch site: AIR FORCE EASTERN TEST RANGE (AFETR)
aabbcc
Your satellite tracking list
Your tracking list is empty




NASA's NSSDC Master Catalog

Two Line Element Set (TLE):
1 46145U 20057AE  21265.70188953  .00206809  27152-4  60764-3 0  9993
2 46145  53.0532  22.2018 0002114 333.4498  26.6419 15.92331959 61863
Source of the keplerian elements: AFSPC